Trinity Center, CA

4:20 AM PST on November 22, 2017 (GMT -0800)
Trinity Center

Weather History for KO86 - December, 2013

Change the Weather History Date:

Saturday, December 7, 2013

  Actual Average (KMHS) Record (KMHS)
Temperature  
Mean Temperature 21 °F -  
Max Temperature 32 °F 41 °F 64 °F (1940)
Min Temperature 10 °F 28 °F 5 °F (2013)
Degree Days  
Heating Degree Days 44    
Moisture  
Dew Point 17 °F    
Average Humidity 81    
Maximum Humidity 100    
Minimum Humidity 41    
Precipitation  
Precipitation 0.08 in - - ()
Sea Level Pressure  
Sea Level Pressure 30.01 in    
Wind  
Wind Speed 3 mph (West)    
Max Wind Speed 7 mph    
Max Gust Speed -    
Visibility 10 miles    
Events      
Averages and records for this station are not official NWS values.
T = Trace of Precipitation, MM = Missing Value Source: NWS Daily Summary

Daily Weather History Graph

Daily Weather History Graph

Search for Another Location

Airport or City:

Trip Planner

Search our weather history database for the weather conditions in past years. The results will help you decide how hot, cold, wet, or windy it might be!

Date:

Astronomy

Dec. 07, 2013 Rise Set
Actual Time 7:22 AM PST 4:42 PM PST
Civil Twilight 6:51 AM PST 5:13 PM PST
Nautical Twilight 6:17 AM PST 5:47 PM PST
Astronomical Twilight 5:43 AM PST 6:20 PM PST
Moon 11:09 AM PST (12/7) 10:32 PM PST (12/7)
Length of Visible Light 10h 21m
Length of Day
9h 20m
Waxing Crescent, 30% of the Moon is Illuminated
Dec 7
Waxing Crescent
Dec 9
First Quarter
Dec 17
Full
Dec 25
Last Quarter
Jan 1
New

Hourly Weather History & Observations

Time (PST) Temp. Windchill Dew Point Humidity Pressure Visibility Wind Dir Wind Speed Gust Speed Precip Events Conditions
12:05 AM 24.8 °F 20.5 °F 23.0 °F 93% 29.83 in 10.0 mi WNW 3.5 mph - N/A   Overcast
12:25 AM 24.8 °F 17.9 °F 23.0 °F 93% 29.83 in 10.0 mi West 5.8 mph - 0.01 in   Overcast
12:50 AM 24.8 °F 20.5 °F 23.0 °F 93% 29.83 in 10.0 mi NW 3.5 mph - 0.01 in   Overcast
1:10 AM 24.8 °F 20.5 °F 23.0 °F 93% 29.83 in 10.0 mi WNW 3.5 mph - N/A   Overcast
1:30 AM 24.8 °F 17.9 °F 23.0 °F 93% 29.83 in 10.0 mi West 5.8 mph - 0.01 in   Overcast
1:50 AM 23.0 °F 18.4 °F 21.2 °F 93% 29.83 in 10.0 mi North 3.5 mph - 0.01 in   Mostly Cloudy
2:10 AM 24.8 °F 17.9 °F 21.2 °F 86% 29.84 in 10.0 mi West 5.8 mph - N/A   Overcast
2:30 AM 23.0 °F - 21.2 °F 93% 29.83 in 10.0 mi Calm Calm - 0.01 in   Overcast
2:45 AM 23.0 °F - 19.4 °F 86% 29.83 in 10.0 mi Calm Calm - 0.01 in   Overcast
3:10 AM 23.0 °F - 19.4 °F 86% 29.83 in 10.0 mi Calm Calm - 0.01 in   Overcast
3:30 AM 23.0 °F - 21.2 °F 93% 29.84 in 10.0 mi Calm Calm - 0.01 in   Overcast
3:50 AM 23.0 °F 17.0 °F 19.4 °F 86% 29.84 in 10.0 mi West 4.6 mph - 0.01 in   Overcast
4:10 AM 23.0 °F 18.4 °F 19.4 °F 86% 29.85 in 10.0 mi West 3.5 mph - N/A   Overcast
4:30 AM 19.4 °F - 17.6 °F 93% 29.85 in 10.0 mi Calm Calm - N/A   Overcast
4:50 AM 19.4 °F - 17.6 °F 93% 29.85 in 10.0 mi Calm Calm - 0.01 in   Overcast
5:10 AM 19.4 °F 14.3 °F 17.6 °F 93% 29.86 in 10.0 mi NW 3.5 mph - N/A   Mostly Cloudy
5:30 AM 17.6 °F - 15.8 °F 93% 29.87 in 10.0 mi Calm Calm - N/A   Partly Cloudy
5:50 AM 15.8 °F - 15.8 °F 100% 29.88 in 10.0 mi Calm Calm - N/A   Clear
6:10 AM 15.8 °F - 14.0 °F 93% 29.88 in 10.0 mi Calm Calm - N/A   Scattered Clouds
6:30 AM 15.8 °F - 12.2 °F 86% 29.89 in 10.0 mi Calm Calm - N/A   Partly Cloudy
6:50 AM 15.8 °F 8.6 °F 14.0 °F 93% 29.90 in 10.0 mi WNW 4.6 mph - N/A   Mostly Cloudy
7:10 AM 14.0 °F 8.2 °F 12.2 °F 93% 29.91 in 10.0 mi West 3.5 mph - N/A   Mostly Cloudy
7:30 AM 15.8 °F 7.2 °F 14.0 °F 93% 29.92 in 10.0 mi West 5.8 mph - N/A   Mostly Cloudy
7:50 AM 15.8 °F 10.2 °F 14.0 °F 93% 29.93 in 10.0 mi NNW 3.5 mph - N/A   Overcast
8:10 AM 17.6 °F - 15.8 °F 93% 29.95 in 10.0 mi Calm Calm - N/A   Mostly Cloudy
8:30 AM 19.4 °F - 17.6 °F 93% 29.96 in 8.0 mi Calm Calm - N/A   Partly Cloudy
8:50 AM 19.4 °F - 17.6 °F 93% 29.97 in 10.0 mi Calm Calm - N/A   Clear
9:10 AM 23.0 °F - 19.4 °F 86% 29.98 in 10.0 mi Calm Calm - 0.01 in   Clear
9:30 AM 23.0 °F - 19.4 °F 86% 29.98 in 10.0 mi Calm Calm - 0.01 in   Clear
9:50 AM 24.8 °F - 21.2 °F 86% 29.99 in 10.0 mi Calm Calm - 0.01 in   Scattered Clouds
10:10 AM 26.6 °F - 23.0 °F 86% 30.00 in 10.0 mi Calm Calm - N/A   Overcast
10:30 AM 28.4 °F - 23.0 °F 80% 30.00 in 10.0 mi Calm Calm - N/A   Mostly Cloudy
10:50 AM 30.2 °F - 21.2 °F 69% 30.00 in 10.0 mi Calm Calm - 0.01 in   Mostly Cloudy
11:10 AM 32.0 °F 28.7 °F 21.2 °F 64% 30.00 in 10.0 mi SSE 3.5 mph - 0.01 in   Overcast
11:30 AM 32.0 °F - 21.2 °F 64% 30.00 in 10.0 mi Calm Calm - 0.02 in   Mostly Cloudy
11:50 AM 32.0 °F - 19.4 °F 60% 30.00 in 10.0 mi Calm Calm - 0.02 in   Partly Cloudy
12:10 PM 28.4 °F - 19.4 °F 69% 29.99 in 10.0 mi Calm Calm - N/A   Clear
12:30 PM 32.0 °F - 15.8 °F 51% 29.98 in 10.0 mi Calm Calm - N/A   Clear
12:50 PM 32.0 °F - 14.0 °F 48% 29.99 in 10.0 mi Calm Calm - N/A   Clear
1:10 PM 32.0 °F 28.7 °F 12.2 °F 44% 30.00 in 10.0 mi NE 3.5 mph - N/A   Clear
1:30 PM 32.0 °F - 10.4 °F 41% 30.00 in 10.0 mi Calm Calm - N/A   Clear
1:50 PM 32.0 °F - 10.4 °F 41% 30.01 in 10.0 mi Calm Calm - N/A   Clear
2:10 PM 32.0 °F 27.5 °F 15.8 °F 51% 30.01 in 10.0 mi SSW 4.6 mph - N/A   Clear
2:30 PM 32.0 °F 26.4 °F 19.4 °F 60% 30.02 in 10.0 mi SSW 5.8 mph - N/A   Clear
2:50 PM 32.0 °F 27.5 °F 21.2 °F 64% 30.03 in 10.0 mi SSW 4.6 mph - N/A   Clear
3:10 PM 32.0 °F - 21.2 °F 64% 30.04 in 10.0 mi Calm Calm - N/A   Clear
3:30 PM 30.2 °F - 21.2 °F 69% 30.06 in 10.0 mi Calm Calm - N/A   Clear
3:50 PM 28.4 °F - 19.4 °F 69% 30.06 in 10.0 mi Calm Calm - N/A   Clear
4:10 PM 26.6 °F - 19.4 °F 74% 30.07 in 10.0 mi Calm Calm - N/A   Clear
4:30 PM 26.6 °F - 23.0 °F 86% 30.08 in 10.0 mi Calm Calm - N/A   Clear
4:50 PM 24.8 °F - 23.0 °F 93% 30.10 in 9.0 mi Calm Calm - N/A   Clear
5:10 PM 24.8 °F 19.1 °F 19.4 °F 80% 30.11 in 10.0 mi West 4.6 mph - N/A   Clear
5:30 PM 24.8 °F 17.9 °F 19.4 °F 80% 30.11 in 10.0 mi West 5.8 mph - N/A   Clear
5:50 PM 23.0 °F 18.4 °F 19.4 °F 86% 30.11 in 10.0 mi NNE 3.5 mph - N/A   Clear
6:10 PM 23.0 °F 15.8 °F 17.6 °F 80% 30.12 in 10.0 mi WSW 5.8 mph - N/A   Scattered Clouds
6:30 PM 21.2 °F 12.6 °F 15.8 °F 80% 30.12 in 10.0 mi West 6.9 mph - N/A   Scattered Clouds
6:50 PM 21.2 °F 13.6 °F 15.8 °F 80% 30.13 in 10.0 mi West 5.8 mph - N/A   Mostly Cloudy
7:10 PM 19.4 °F 11.5 °F 15.8 °F 86% 30.13 in 10.0 mi WNW 5.8 mph - N/A   Mostly Cloudy
7:30 PM 19.4 °F 10.4 °F 14.0 °F 80% 30.14 in 10.0 mi West 6.9 mph - N/A   Scattered Clouds
7:50 PM 19.4 °F 11.5 °F 14.0 °F 80% 30.15 in 10.0 mi West 5.8 mph - N/A   Partly Cloudy
8:10 PM 17.6 °F - 14.0 °F 86% 30.17 in 10.0 mi Calm Calm - N/A   Clear
8:30 PM 15.8 °F 8.6 °F 12.2 °F 86% 30.18 in 10.0 mi West 4.6 mph - N/A   Clear
8:50 PM 15.8 °F 10.2 °F 10.4 °F 79% 30.19 in 10.0 mi West 3.5 mph - N/A   Clear
9:10 PM 15.8 °F 8.6 °F 10.4 °F 79% 30.20 in 10.0 mi West 4.6 mph - N/A   Clear
9:30 PM 14.0 °F 3.9 °F 10.4 °F 86% 30.20 in 9.0 mi West 6.9 mph - N/A   Clear
9:50 PM 14.0 °F - 10.4 °F 86% 30.21 in 10.0 mi Calm Calm - N/A   Partly Cloudy
10:10 PM 14.0 °F 6.5 °F 10.4 °F 86% 30.21 in 10.0 mi West 4.6 mph - N/A   Clear
10:30 PM 12.2 °F - 8.6 °F 85% 30.21 in 8.0 mi Calm Calm - N/A   Clear
10:50 PM 10.4 °F - 6.8 °F 85% 30.22 in 7.0 mi Calm Calm - N/A   Scattered Clouds
11:10 PM 10.4 °F - 8.6 °F 92% 30.23 in 10.0 mi Calm Calm - N/A   Mostly Cloudy
11:30 PM 10.4 °F 2.2 °F 6.8 °F 85% 30.23 in 8.0 mi West 4.6 mph - N/A   Mostly Cloudy
11:50 PM 10.4 °F 4.0 °F 6.8 °F 85% 30.23 in 10.0 mi WNW 3.5 mph - N/A   Mostly Cloudy